Zurück zum Katalog

STARLINK-31124

AktivKommunikationVLEO
NORAD 58674·PAYLOAD·🇺🇸 United States

Gestartet Dec 29, 2023 von Cape Canaveral Space Force Station

Loading…

Nächste Überflüge (nächste 24 Stunden)

TLE

AktuellSource: CelesTrak SupGP

Epoche: Sep 15, 2026, 02:07 UTC

1 58674C 23211H   26258.08868056  .00033565  00000+0  12156-2 0  2589
2 58674  43.0014  95.4052 0001648 270.4830  88.7577 15.27566061    14

Verfolge STARLINK-31124 in Echtzeit mit AllMySat

Download on the App Store